Time,TemperatureF,DewpointF,PressureIn,WindDirection,WindDirectionDegrees,WindSpeedMPH,WindSpeedGustMPH,Humidity,HourlyPrecipIn,Conditions,Clouds,dailyrainin,SoftwareType,DateUTC
2014-01-01 00:04:00,36.2,30.0,30.26,South,184,8.0,11.0,78,0.00,,,0.00,weatherlink.com 1.10,2014-01-01 06:04:00,
2014-01-01 00:19:00,36.1,30.0,30.26,South,173,7.0,10.0,78,0.00,,,0.00,weatherlink.com 1.10,2014-01-01 06:19:00,
2014-01-01 00:34:00,36.2,30.0,30.26,South,173,7.0,11.0,78,0.00,,,0.00,weatherlink.com 1.10,2014-01-01 06:34:00,
2014-01-01 00:49:00,36.2,30.0,30.26,South,182,1.0,7.0,78,0.00,,,0.00,weatherlink.com 1.10,2014-01-01 06:49:00,
2014-01-01 01:04:00,36.0,30.0,30.25,South,183,4.0,8.0,78,0.00,,,0.00,weatherlink.com 1.10,2014-01-01 07:04:00,
2014-01-01 01:20:00,35.5,30.0,30.25,South,188,6.0,8.0,79,0.00,,,0.00,weatherlink.com 1.10,2014-01-01 07:20:00,
2014-01-01 01:35:00,35.1,30.0,30.24,South,173,5.0,11.0,81,0.00,,,0.00,weatherlink.com 1.10,2014-01-01 07:35:00,
2014-01-01 01:50:00,35.2,30.0,30.23,South,173,6.0,11.0,81,0.00,,,0.00,weatherlink.com 1.10,2014-01-01 07:50:00,
2014-01-01 02:05:00,35.3,30.0,30.24,South,175,5.0,10.0,81,0.00,,,0.00,weatherlink.com 1.10,2014-01-01 08:05:00,
2014-01-01 02:20:00,35.3,30.0,30.23,South,177,7.0,11.0,82,0.00,,,0.00,weatherlink.com 1.10,2014-01-01 08:20:00,
2014-01-01 02:35:00,35.4,30.0,30.23,South,185,4.0,9.0,81,0.00,,,0.00,weatherlink.com 1.10,2014-01-01 08:35:00,
2014-01-01 02:50:00,35.5,30.0,30.23,South,191,7.0,9.0,81,0.00,,,0.00,weatherlink.com 1.10,2014-01-01 08:50:00,
2014-01-01 03:05:00,35.5,31.0,30.23,SSW,201,6.0,9.0,82,0.00,,,0.00,weatherlink.com 1.10,2014-01-01 09:05:00,
2014-01-01 03:20:00,35.6,30.0,30.22,South,182,5.0,13.0,81,0.00,,,0.00,weatherlink.com 1.10,2014-01-01 09:20:00,
2014-01-01 03:35:00,35.2,30.0,30.21,South,182,7.0,12.0,82,0.00,,,0.00,weatherlink.com 1.10,2014-01-01 09:35:00,
2014-01-01 03:50:00,35.0,30.0,30.21,South,185,8.0,11.0,82,0.00,,,0.00,weatherlink.com 1.10,2014-01-01 09:50:00,
2014-01-01 04:05:00,34.4,30.0,30.21,South,172,7.0,8.0,83,0.00,,,0.00,weatherlink.com 1.10,2014-01-01 10:05:00,
2014-01-01 04:20:00,34.1,30.0,30.21,South,181,6.0,7.0,83,0.00,,,0.00,weatherlink.com 1.10,2014-01-01 10:20:00,
2014-01-01 04:35:00,33.6,29.0,30.21,South,184,4.0,8.0,84,0.00,,,0.00,weatherlink.com 1.10,2014-01-01 10:35:00,
2014-01-01 04:50:00,33.1,29.0,30.21,South,178,6.0,7.0,85,0.00,,,0.00,weatherlink.com 1.10,2014-01-01 10:50:00,
2014-01-01 05:05:00,32.8,29.0,30.21,South,178,2.0,5.0,86,0.00,,,0.00,weatherlink.com 1.10,2014-01-01 11:05:00,
2014-01-01 05:20:00,32.4,29.0,30.20,South,178,2.0,7.0,86,0.00,,,0.00,weatherlink.com 1.10,2014-01-01 11:20:00,
2014-01-01 05:35:00,32.7,29.0,30.21,South,178,3.0,5.0,87,0.00,,,0.00,weatherlink.com 1.10,2014-01-01 11:35:00,
2014-01-01 05:50:00,32.3,29.0,30.21,South,178,4.0,7.0,86,0.00,,,0.00,weatherlink.com 1.10,2014-01-01 11:50:00,
2014-01-01 06:05:00,32.3,29.0,30.21,South,178,4.0,7.0,87,0.00,,,0.00,weatherlink.com 1.10,2014-01-01 12:05:00,
2014-01-01 06:20:00,32.7,29.0,30.21,South,178,2.0,6.0,87,0.00,,,0.00,weatherlink.com 1.10,2014-01-01 12:20:00,
2014-01-01 06:35:00,32.4,29.0,30.21,South,178,3.0,7.0,87,0.00,,,0.00,weatherlink.com 1.10,2014-01-01 12:35:00,
2014-01-01 06:50:00,32.3,29.0,30.21,South,178,4.0,7.0,86,0.00,,,0.00,weatherlink.com 1.10,2014-01-01 12:50:00,
2014-01-01 07:05:00,32.4,29.0,30.21,South,178,4.0,6.0,86,0.00,,,0.00,weatherlink.com 1.10,2014-01-01 13:05:00,
2014-01-01 07:20:00,32.5,29.0,30.21,South,179,4.0,8.0,86,0.00,,,0.00,weatherlink.com 1.10,2014-01-01 13:20:00,
2014-01-01 07:35:00,32.4,29.0,30.21,South,175,3.0,7.0,86,0.00,,,0.00,weatherlink.com 1.10,2014-01-01 13:35:00,
2014-01-01 07:50:00,32.8,29.0,30.21,South,176,2.0,7.0,86,0.00,,,0.00,weatherlink.com 1.10,2014-01-01 13:50:00,
2014-01-01 08:05:00,33.4,30.0,30.21,South,185,4.0,10.0,86,0.00,,,0.00,weatherlink.com 1.10,2014-01-01 14:05:00,
2014-01-01 08:20:00,34.7,30.0,30.21,SSW,194,6.0,11.0,84,0.00,,,0.00,weatherlink.com 1.10,2014-01-01 14:20:00,
2014-01-01 08:35:00,35.8,31.0,30.22,South,180,4.0,10.0,82,0.00,,,0.00,weatherlink.com 1.10,2014-01-01 14:35:00,
2014-01-01 08:50:00,36.7,31.0,30.22,SSW,198,7.0,12.0,80,0.00,,,0.00,weatherlink.com 1.10,2014-01-01 14:50:00,
2014-01-01 09:05:00,37.1,31.0,30.22,South,188,4.0,13.0,79,0.00,,,0.00,weatherlink.com 1.10,2014-01-01 15:05:00,
2014-01-01 09:20:00,37.9,32.0,30.22,South,178,3.0,11.0,78,0.00,,,0.00,weatherlink.com 1.10,2014-01-01 15:20:00,
2014-01-01 09:35:00,38.9,32.0,30.21,SW,214,9.0,11.0,76,0.00,,,0.00,weatherlink.com 1.10,2014-01-01 15:35:00,
2014-01-01 09:50:00,39.8,32.0,30.21,SW,220,6.0,14.0,73,0.00,,,0.00,weatherlink.com 1.10,2014-01-01 15:50:00,
2014-01-01 10:05:00,40.8,32.0,30.20,South,186,4.0,10.0,72,0.00,,,0.00,weatherlink.com 1.10,2014-01-01 16:05:00,
2014-01-01 10:20:00,41.9,33.0,30.20,South,182,3.0,11.0,70,0.00,,,0.00,weatherlink.com 1.10,2014-01-01 16:20:00,
2014-01-01 10:36:00,42.8,34.0,30.20,South,186,8.0,11.0,70,0.00,,,0.00,weatherlink.com 1.10,2014-01-01 16:36:00,
2014-01-01 10:51:00,43.3,33.0,30.19,SW,223,7.0,13.0,66,0.00,,,0.00,weatherlink.com 1.10,2014-01-01 16:51:00,
2014-01-01 11:06:00,44.2,33.0,30.18,South,184,9.0,12.0,64,0.00,,,0.00,weatherlink.com 1.10,2014-01-01 17:06:00,
2014-01-01 11:21:00,44.8,32.0,30.17,SW,236,5.0,10.0,62,0.00,,,0.00,weatherlink.com 1.10,2014-01-01 17:21:00,
2014-01-01 11:36:00,45.0,32.0,30.16,SSW,202,6.0,17.0,61,0.00,,,0.00,weatherlink.com 1.10,2014-01-01 17:36:00,
2014-01-01 11:51:00,44.7,33.0,30.14,South,182,10.0,12.0,63,0.00,,,0.00,weatherlink.com 1.10,2014-01-01 17:51:00,
2014-01-01 12:06:00,44.6,33.0,30.14,WSW,240,5.0,14.0,63,0.00,,,0.00,weatherlink.com 1.10,2014-01-01 18:06:00,
2014-01-01 12:21:00,44.6,33.0,30.13,SSW,200,10.0,14.0,63,0.00,,,0.00,weatherlink.com 1.10,2014-01-01 18:21:00,
2014-01-01 12:36:00,44.5,32.0,30.13,SSW,202,5.0,14.0,63,0.00,,,0.00,weatherlink.com 1.10,2014-01-01 18:36:00,
2014-01-01 12:51:00,44.7,32.0,30.11,SSW,201,5.0,13.0,62,0.00,,,0.00,weatherlink.com 1.10,2014-01-01 18:51:00,
2014-01-01 13:06:00,44.8,32.0,30.11,South,181,5.0,10.0,62,0.00,,,0.00,weatherlink.com 1.10,2014-01-01 19:06:00,
2014-01-01 13:21:00,45.5,33.0,30.09,South,169,11.0,12.0,61,0.00,,,0.00,weatherlink.com 1.10,2014-01-01 19:21:00,
2014-01-01 13:36:00,45.4,33.0,30.09,SSE,167,6.0,13.0,62,0.00,,,0.00,weatherlink.com 1.10,2014-01-01 19:36:00,
2014-01-01 13:51:00,45.0,33.0,30.08,SSW,211,6.0,14.0,62,0.00,,,0.00,weatherlink.com 1.10,2014-01-01 19:51:00,
2014-01-01 14:06:00,44.9,32.0,30.09,SSW,203,6.0,15.0,62,0.00,,,0.00,weatherlink.com 1.10,2014-01-01 20:06:00,
2014-01-01 14:21:00,44.6,33.0,30.08,South,175,6.0,11.0,63,0.00,,,0.00,weatherlink.com 1.10,2014-01-01 20:21:00,
2014-01-01 14:36:00,44.4,32.0,30.08,SSE,159,5.0,11.0,63,0.00,,,0.00,weatherlink.com 1.10,2014-01-01 20:36:00,
2014-01-01 14:51:00,44.5,33.0,30.07,South,191,4.0,7.0,65,0.00,,,0.00,weatherlink.com 1.10,2014-01-01 20:51:00,
2014-01-01 15:06:00,44.4,33.0,30.08,South,169,3.0,5.0,65,0.00,,,0.00,weatherlink.com 1.10,2014-01-01 21:06:00,
2014-01-01 15:21:00,44.5,34.0,30.08,South,169,0.0,6.0,66,0.00,,,0.00,weatherlink.com 1.10,2014-01-01 21:21:00,
2014-01-01 15:36:00,44.3,34.0,30.07,South,169,4.0,5.0,66,0.00,,,0.00,weatherlink.com 1.10,2014-01-01 21:36:00,
2014-01-01 15:51:00,44.1,34.0,30.06,South,169,2.0,4.0,68,0.00,,,0.00,weatherlink.com 1.10,2014-01-01 21:51:00,
2014-01-01 16:06:00,43.4,34.0,30.06,South,169,3.0,4.0,69,0.00,,,0.00,weatherlink.com 1.10,2014-01-01 22:06:00,
2014-01-01 16:21:00,42.9,33.0,30.06,South,169,3.0,3.0,69,0.00,,,0.00,weatherlink.com 1.10,2014-01-01 22:21:00,
2014-01-01 16:36:00,42.7,33.0,30.05,South,169,0.0,3.0,69,0.00,,,0.00,weatherlink.com 1.10,2014-01-01 22:36:00,
2014-01-01 16:51:00,42.2,33.0,30.06,South,169,0.0,2.0,70,0.00,,,0.00,weatherlink.com 1.10,2014-01-01 22:51:00,
2014-01-01 17:06:00,41.5,33.0,30.05,South,169,1.0,2.0,71,0.00,,,0.00,weatherlink.com 1.10,2014-01-01 23:06:00,
2014-01-01 17:21:00,40.9,33.0,30.06,South,169,0.0,0.0,72,0.00,,,0.00,weatherlink.com 1.10,2014-01-01 23:21:00,
2014-01-01 17:36:00,40.2,33.0,30.06,South,169,0.0,1.0,74,0.00,,,0.00,weatherlink.com 1.10,2014-01-01 23:36:00,
2014-01-01 17:51:00,39.9,33.0,30.05,South,169,0.0,1.0,75,0.00,,,0.00,weatherlink.com 1.10,2014-01-01 23:51:00,
2014-01-01 18:06:00,39.6,33.0,30.04,South,169,1.0,1.0,77,0.00,,,0.00,weatherlink.com 1.10,2014-01-02 00:06:00,
2014-01-01 18:21:00,40.4,33.0,30.04,South,169,2.0,3.0,76,0.00,,,0.00,weatherlink.com 1.10,2014-01-02 00:21:00,
2014-01-01 18:36:00,41.1,33.0,30.03,South,169,2.0,4.0,74,0.00,,,0.00,weatherlink.com 1.10,2014-01-02 00:36:00,
2014-01-01 18:51:00,40.5,34.0,30.04,South,169,0.0,1.0,76,0.00,,,0.00,weatherlink.com 1.10,2014-01-02 00:51:00,
2014-01-01 19:06:00,39.5,33.0,30.02,South,169,1.0,1.0,78,0.00,,,0.00,weatherlink.com 1.10,2014-01-02 01:06:00,
2014-01-01 19:21:00,39.2,33.0,30.01,South,169,0.0,0.0,79,0.00,,,0.00,weatherlink.com 1.10,2014-01-02 01:21:00,
2014-01-01 19:36:00,38.8,33.0,30.02,South,169,0.0,2.0,81,0.00,,,0.00,weatherlink.com 1.10,2014-01-02 01:36:00,
2014-01-01 19:51:00,38.7,33.0,30.02,South,169,0.0,1.0,81,0.00,,,0.00,weatherlink.com 1.10,2014-01-02 01:51:00,
2014-01-01 20:06:00,38.4,33.0,30.01,South,169,0.0,2.0,81,0.00,,,0.00,weatherlink.com 1.10,2014-01-02 02:06:00,
2014-01-01 20:21:00,39.1,33.0,30.01,South,169,0.0,0.0,80,0.00,,,0.00,weatherlink.com 1.10,2014-01-02 02:21:00,
2014-01-01 20:37:00,38.3,33.0,30.02,South,169,0.0,2.0,82,0.00,,,0.00,weatherlink.com 1.10,2014-01-02 02:37:00,
2014-01-01 20:52:00,37.5,33.0,30.01,South,169,0.0,0.0,84,0.00,,,0.00,weatherlink.com 1.10,2014-01-02 02:52:00,
2014-01-01 21:07:00,37.4,33.0,30.02,South,169,0.0,1.0,85,0.00,,,0.00,weatherlink.com 1.10,2014-01-02 03:07:00,
2014-01-01 21:22:00,37.7,33.0,30.04,South,169,1.0,3.0,84,0.00,,,0.00,weatherlink.com 1.10,2014-01-02 03:22:00,
2014-01-01 21:37:00,39.3,35.0,30.03,SSE,151,0.0,2.0,83,0.02,,,0.02,weatherlink.com 1.10,2014-01-02 03:37:00,
2014-01-01 21:52:00,38.8,35.0,30.02,SSE,151,0.0,1.0,86,0.03,,,0.03,weatherlink.com 1.10,2014-01-02 03:52:00,
2014-01-01 22:22:00,37.4,35.0,30.00,SSE,151,0.0,0.0,89,0.04,,,0.04,weatherlink.com 1.10,2014-01-02 04:22:00,
2014-01-01 22:37:00,37.0,35.0,30.00,SSE,151,0.0,1.0,91,0.02,,,0.04,weatherlink.com 1.10,2014-01-02 04:37:00,
2014-01-01 22:52:00,36.6,34.0,30.00,SSE,151,0.0,1.0,91,0.01,,,0.04,weatherlink.com 1.10,2014-01-02 04:52:00,
2014-01-01 23:07:00,36.2,34.0,29.99,SSE,151,0.0,0.0,92,0.00,,,0.04,weatherlink.com 1.10,2014-01-02 05:07:00,
2014-01-01 23:22:00,36.4,35.0,29.98,SSE,151,0.0,0.0,93,0.00,,,0.04,weatherlink.com 1.10,2014-01-02 05:22:00,
2014-01-01 23:37:00,36.9,35.0,29.98,SSE,151,3.0,5.0,93,0.00,,,0.04,weatherlink.com 1.10,2014-01-02 05:37:00,
2014-01-01 23:52:00,37.1,35.0,29.97,SSE,151,3.0,3.0,92,0.00,,,0.04,weatherlink.com 1.10,2014-01-02 05:52:00,